Terminal Aerodrome Forecast
Issued by NWS

Home | Current Version | Previous Version | Text Only | Print | Product List | Glossary On
Versions: 1 2 3 4 5 6 7 8 9 10 11 12 13 14 15
000
FTUS42 TJSJ 221700
TAFKPK
TAF
TKPK 221722Z 2218/2318 08013G22KT P6SM VCSH FEW018 SCT040
     FM222100 09008G15KT P6SM VCTS SCT019CB SCT050 SCT120
      TEMPO 2221/2301 VRB12G20KT 3SM TSRA BKN018CB
     FM231000 08013KT P6SM VCTS SCT022CB BKN040=

USA.gov is the U.S. government's official web portal to all federal, state and local government web resources and services.